Portada
METAR-TAF:

METAR-TAF

Aeroports :

NWS Office

Majuro, Illes Marshall

latitud: 07-05N, longitud: 171-12E, altitud: 4 m

Observació

L'informe es va fer fa 44 minuts, a les 10:52 UTC
Vent 12 kt del Est/Sud-Est
Temperatura 27°C
Humitat 84%
Pressió 1010 hPa
Visibilitat: 24.1 km
Núvols disperses a una alçada de 1400 ft, Cumulus congestus.
Cel ennuvolat a una alçada de 4500 ft
Cel ennuvolat a una alçada de 11000 ft
Cel cobert a una alçada de 30000 ft

METAR: PKMR 011052Z 11012KT 15SM SCT014TCU BKN045 BKN110 OVC300 27/24 A2983 RMK RAE24 TCU NE-E-S SLP103 T02740235

Hora: 23:36 (11:36 UTC)


TAF: manca

Observacions i pronòstics meteorològics de més de 4000 aeroports (METAR i TAF).

Les estacions disponibles són els punts grocs i vermells al mapa.

Posi el ratolí al punt desitjat per veure el nom de l'estació.

Feu clic per veure les observacions i els pronòstics meteorològics.

Per canviar el mapa: feu clic els botons verds amb una creu de color negre per apropar; al botó verd amb un guió per allunyar la imatge; o en les fletxes verdes per a mapes adjacents.


METAR-TAF: